This is the latest recevied weather packets stored in our database for station/object KN4MGS. If no packets are shown the sender has not sent any weather packets the latest 10 day(s).
| Time | Temp. | Humidity | Pressure | Rain* | Wind** | Luminosity | Snow |
|---|---|---|---|---|---|---|---|
| 1778020314 | 26.67° C | 42% | 1016.8 hPa | 0 mm | - | 243 W/m² | - |
| 1778020010 | 26.67° C | 43% | 1016.7 hPa | 0 mm | - | 239 W/m² | - |
| 1778019707 | 26.11° C | 43% | 1016.9 hPa | 0 mm | - | 194 W/m² | - |
| 1778019404 | 26.67° C | 43% | 1016.8 hPa | 0 mm | - | 200 W/m² | - |
| 1778019100 | 26.67° C | 43% | 1016.9 hPa | 0 mm | - | 124 W/m² | - |
| 1778018798 | 26.67° C | 42% | 1017.1 hPa | 0 mm | - | 255 W/m² | - |
| 1778018495 | 26.67° C | 43% | 1017.1 hPa | 0 mm | - | 293 W/m² | - |
| 1778018193 | 26.67° C | 42% | 1017.1 hPa | 0 mm | - | 312 W/m² | - |
| 1778017891 | 26.11° C | 43% | 1017.2 hPa | 0 mm | - | 321 W/m² | - |
| 1778017589 | 26.11° C | 43% | 1017.1 hPa | 0 mm | - | 293 W/m² | - |
| 1778017285 | 26.67° C | 43% | 1017.3 hPa | 0 mm | - | 261 W/m² | - |
| 1778016983 | 26.67° C | 43% | 1017.3 hPa | 0 mm | - | 372 W/m² | - |
| 1778016679 | 26.67° C | 42% | 1017.3 hPa | 0 mm | - | 138 W/m² | - |
| 1778016375 | 26.11° C | 44% | 1017.2 hPa | 0 mm | - | 417 W/m² | - |
| 1778016073 | 26.67° C | 44% | 1017.2 hPa | 0 mm | - | 133 W/m² | - |
| 1778015770 | 26.67° C | 44% | 1017.1 hPa | 0 mm | - | 135 W/m² | - |
| 1778015467 | 27.22° C | 41% | 1017.3 hPa | 0 mm | - | 405 W/m² | - |
| 1778015164 | 27.22° C | 43% | 1017.2 hPa | 0 mm | - | 191 W/m² | - |
| 1778014861 | 27.22° C | 42% | 1017.3 hPa | 0 mm | - | 345 W/m² | - |
| 1778014559 | 27.22° C | 43% | 1017.3 hPa | 0 mm | - | 533 W/m² | - |
| 1778014256 | 27.22° C | 44% | 1017.5 hPa | 0 mm | - | 556 W/m² | - |
| 1778013953 | 27.22° C | 42% | 1017.5 hPa | 0 mm | - | 589 W/m² | - |
| 1778013650 | 26.67° C | 43% | 1017.5 hPa | 0 mm | - | 425 W/m² | - |
| 1778013347 | 26.67° C | 43% | 1017.6 hPa | 0 mm | - | 442 W/m² | - |
| 1778013044 | 26.67° C | 42% | 1017.7 hPa | 0 mm | - | 349 W/m² | - |
* Rain latest hour (hover to see other rain measurements)
** Current wind speed in m/s (hover to see current wind gust speed)